�������l�o���
Date,Time,MP-1(��Sv/h),MP-2(��Sv/h),MP-3(��Sv/h),MP-4(��Sv/h),MP-5(��Sv/h),MP-6(��Sv/h),MP-7(��Sv/h),����,����(m/s),���J
2014/12/05,00:00,0.598,0.386,0.642,0.579,0.572,0.266,0.233,�k��,6.1,��
2014/12/05,00:10,0.597,0.386,0.645,0.578,0.572,0.268,0.233,�k��,7.3,��
2014/12/05,00:20,0.597,0.386,0.643,0.578,0.574,0.267,0.232,�k��,7.3,��
2014/12/05,00:30,0.597,0.386,0.645,0.579,0.572,0.266,0.232,�k��,6.8,��
2014/12/05,00:40,0.598,0.386,0.643,0.577,0.572,0.268,0.232,�k��,6.9,��
2014/12/05,00:50,0.599,0.386,0.645,0.580,0.572,0.267,0.233,�k�k��,6.8,��
2014/12/05,01:00,0.597,0.387,0.645,0.578,0.572,0.267,0.231,�k��,5.3,��
2014/12/05,01:10,0.597,0.386,0.645,0.577,0.573,0.266,0.233,�k�k��,3.1,��
2014/12/05,01:20,0.599,0.386,0.645,0.577,0.573,0.267,0.233,�k�k��,4.5,��
2014/12/05,01:30,0.596,0.387,0.645,0.579,0.572,0.267,0.234,�k��,6.0,��
2014/12/05,01:40,0.598,0.386,0.642,0.580,0.572,0.266,0.234,�k��,6.3,��
2014/12/05,01:50,0.599,0.386,0.645,0.579,0.572,0.267,0.232,�k��,6.2,��
2014/12/05,02:00,0.597,0.387,0.645,0.578,0.570,0.268,0.233,�k��,5.3,��
2014/12/05,02:10,0.597,0.387,0.644,0.579,0.572,0.266,0.233,�k�k��,4.0,��
2014/12/05,02:20,0.598,0.386,0.645,0.578,0.572,0.266,0.233,�k�k��,4.2,��
2014/12/05,02:30,0.598,0.386,0.642,0.580,0.573,0.268,0.232,�k,4.3,��
2014/12/05,02:40,0.598,0.388,0.645,0.580,0.572,0.268,0.232,�k,3.6,��
2014/12/05,02:50,0.598,0.387,0.646,0.580,0.574,0.267,0.233,�k,3.1,��
2014/12/05,03:00,0.599,0.387,0.645,0.578,0.572,0.267,0.233,�k,3.1,��
2014/12/05,03:10,0.599,0.387,0.645,0.580,0.573,0.268,0.233,�k,2.2,��
2014/12/05,03:20,0.597,0.386,0.644,0.580,0.571,0.267,0.232,�k�k��,1.4,��
2014/12/05,03:30,0.597,0.386,0.644,0.578,0.573,0.266,0.232,�k�k��,1.4,��
2014/12/05,03:40,0.599,0.387,0.646,0.578,0.574,0.267,0.233,�k,2.4,��
2014/12/05,03:50,0.599,0.386,0.644,0.578,0.573,0.267,0.232,�k�k��,1.2,��
2014/12/05,04:00,0.596,0.385,0.645,0.578,0.573,0.268,0.232,�k��,1.5,��
2014/12/05,04:10,0.598,0.387,0.644,0.579,0.572,0.267,0.233,�k,3.4,��
2014/12/05,04:20,0.598,0.388,0.646,0.580,0.574,0.267,0.233,�k,3.7,��
2014/12/05,04:30,0.597,0.385,0.644,0.579,0.572,0.266,0.232,�k,4.2,��
2014/12/05,04:40,0.597,0.386,0.645,0.580,0.572,0.268,0.232,�k,3.1,��
2014/12/05,04:50,0.597,0.387,0.645,0.579,0.571,0.266,0.232,�k�k��,3.8,��
2014/12/05,05:00,0.599,0.387,0.642,0.579,0.572,0.267,0.233,�k�k��,3.3,��
2014/12/05,05:10,0.598,0.388,0.644,0.580,0.572,0.269,0.232,�k�k��,3.1,��
2014/12/05,05:20,0.596,0.387,0.645,0.579,0.573,0.268,0.231,���k��,4.8,��
2014/12/05,05:30,0.597,0.387,0.644,0.579,0.572,0.265,0.233,�k��,2.9,��
2014/12/05,05:40,0.598,0.388,0.645,0.579,0.574,0.266,0.233,�k��,6.0,��
2014/12/05,05:50,0.599,0.387,0.645,0.579,0.571,0.266,0.233,��,6.7,��
2014/12/05,06:00,0.597,0.387,0.644,0.579,0.573,0.268,0.233,��,8.1,��
2014/12/05,06:10,0.596,0.387,0.646,0.579,0.572,0.267,0.231,�k��,7.1,��
2014/12/05,06:20,0.598,0.387,0.646,0.578,0.573,0.268,0.233,�k�k��,6.2,��
2014/12/05,06:30,0.597,0.387,0.646,0.580,0.572,0.266,0.234,�k,7.9,��
2014/12/05,06:40,0.599,0.386,0.645,0.580,0.573,0.268,0.233,�k,6.6,��
2014/12/05,06:50,0.599,0.386,0.648,0.580,0.572,0.267,0.233,�k,6.9,��
2014/12/05,07:00,0.598,0.388,0.645,0.580,0.573,0.269,0.233,�k,5.0,��
2014/12/05,07:10,0.598,0.387,0.644,0.580,0.571,0.268,0.232,�k�k��,4.1,��
2014/12/05,07:20,0.599,0.387,0.647,0.579,0.572,0.266,0.232,�k��,2.1,��
2014/12/05,07:30,0.599,0.385,0.647,0.581,0.572,0.266,0.233,�k�k��,3.3,��
2014/12/05,07:40,0.596,0.388,0.644,0.578,0.573,0.267,0.232,�k�k��,2.4,��
2014/12/05,07:50,0.597,0.388,0.644,0.577,0.573,0.266,0.232,�k,2.2,��
2014/12/05,08:00,0.599,0.387,0.646,0.578,0.574,0.266,0.233,�k,4.0,��
2014/12/05,08:10,0.600,0.388,0.646,0.576,0.574,0.267,0.233,�k,3.9,��
2014/12/05,08:20,0.600,0.387,0.645,0.571,0.574,0.267,0.231,�k,3.0,��
2014/12/05,08:30,0.599,0.387,0.646,0.571,0.573,0.266,0.231,�k�k��,2.8,��
2014/12/05,08:40,0.598,0.386,0.646,0.571,0.572,0.267,0.232,�k,2.9,��
2014/12/05,08:50,0.601,0.387,0.645,0.572,0.574,0.268,0.233,�k�k��,3.1,��
2014/12/05,09:00,0.598,0.387,0.645,0.572,0.575,0.265,0.233,�k��,6.1,��
2014/12/05,09:10,0.601,0.387,0.646,0.573,0.572,0.267,0.233,�k��,5.6,��
2014/12/05,09:20,0.600,0.386,0.647,0.574,0.574,0.267,0.233,�k��,5.4,��
2014/12/05,09:30,0.601,0.388,0.647,0.573,0.573,0.267,0.232,�k��,4.1,��
2014/12/05,09:40,0.598,0.387,0.645,0.573,0.574,0.268,0.233,���k��,4.2,��
2014/12/05,09:50,0.600,0.387,0.646,0.571,0.574,0.266,0.233,�k�k��,0.7,��
2014/12/05,10:00,0.602,0.388,0.647,0.574,0.575,0.268,-,���k��,1.1,��
2014/12/05,10:10,0.599,0.388,0.645,0.570,0.573,0.268,-,���쐼,3.0,��
2014/12/05,10:20,0.600,0.387,0.646,0.566,0.575,0.268,-,��,2.6,��
2014/12/05,10:30,0.599,0.389,0.646,0.566,0.572,0.269,-,���쐼,7.3,��
2014/12/05,10:40,0.601,0.389,0.647,0.568,0.573,0.267,-,���쐼,3.6,��
2014/12/05,10:50,0.601,0.388,0.647,0.567,0.574,0.268,-,�k��,3.0,��
2014/12/05,11:00,0.601,0.389,0.646,0.569,0.575,0.268,-,��,8.0,��
2014/12/05,11:10,0.600,0.389,0.648,0.567,0.572,0.269,-,��,7.5,��
2014/12/05,11:20,0.602,0.390,0.646,0.569,0.575,0.269,-,���k��,8.4,��
2014/12/05,11:30,0.599,0.388,0.648,0.571,0.575,0.268,-,���k��,8.5,��
2014/12/05,11:40,0.601,0.389,0.648,0.570,0.574,0.270,-,���k��,5.1,��
2014/12/05,11:50,0.600,0.390,0.649,0.568,0.574,0.269,-,��,7.0,��
2014/12/05,12:00,0.601,0.388,0.647,0.567,0.576,0.270,-,��,7.0,��
2014/12/05,12:10,0.602,0.390,0.648,0.568,0.574,0.269,-,���k��,9.5,��
2014/12/05,12:20,0.603,0.390,0.650,0.569,0.576,0.269,-,���k��,9.2,��
2014/12/05,12:30,0.602,0.389,0.647,0.569,0.576,0.268,-,���k��,10.1,��
2014/12/05,12:40,0.601,0.390,0.651,0.570,0.574,0.269,-,���k��,12.9,��
2014/12/05,12:50,0.602,0.389,0.649,0.571,0.574,0.269,-,���k��,10.8,��
2014/12/05,13:00,0.600,0.390,0.649,0.569,0.574,0.268,-,���k��,8.9,��
2014/12/05,13:10,0.602,0.389,0.649,0.571,0.575,0.270,-,���k��,4.2,��
2014/12/05,13:20,0.602,0.388,0.649,0.573,0.575,0.269,-,���k��,7.7,��
2014/12/05,13:30,0.602,0.390,0.649,0.571,0.576,0.268,-,���k��,5.8,��
2014/12/05,13:40,0.602,0.389,0.651,0.572,0.574,0.269,-,�k�k��,7.6,��
2014/12/05,13:50,0.603,0.388,0.649,0.570,0.574,0.269,-,�k��,5.6,��
2014/12/05,14:00,0.604,0.389,0.650,0.571,0.575,0.269,-,���k��,6.7,��
2014/12/05,14:10,0.602,0.391,0.650,0.571,0.575,0.268,-,�k��,4.3,��
2014/12/05,14:20,0.604,0.389,0.649,0.571,0.575,0.270,-,�k��,4.5,��
2014/12/05,14:30,0.602,0.389,0.649,0.570,0.574,0.269,-,���k��,4.9,��
2014/12/05,14:40,0.602,0.389,0.649,0.571,0.574,0.268,-,�k�k��,2.8,��
2014/12/05,14:50,0.602,0.389,0.651,0.570,0.575,0.269,-,�k,2.4,��
2014/12/05,15:00,0.601,0.389,0.651,0.571,0.574,0.268,-,�k�k��,2.4,��
2014/12/05,15:10,0.602,0.390,0.649,0.569,0.575,0.270,-,�k,1.7,��
2014/12/05,15:20,0.603,0.390,0.649,0.567,0.574,0.268,-,�k��,2.0,��
2014/12/05,15:30,0.602,0.388,0.648,0.569,0.576,0.269,0.234,�k�k��,5.0,��
2014/12/05,15:40,0.603,0.390,0.649,0.569,0.575,0.269,0.235,�k,2.5,��
2014/12/05,15:50,0.602,0.388,0.650,0.569,0.576,0.270,0.234,�k,1.7,��
2014/12/05,16:00,0.602,0.390,0.652,0.567,0.574,0.268,0.234,�k,7.8,��
2014/12/05,16:10,0.604,0.388,0.649,0.570,0.574,0.270,0.233,�k,8.3,��
2014/12/05,16:20,0.601,0.390,0.648,0.585,0.575,0.270,0.235,�k,8.9,��
2014/12/05,16:30,0.600,0.389,0.647,0.583,0.576,0.270,0.234,�k,8.9,��
2014/12/05,16:40,0.604,0.389,0.648,0.582,0.575,0.269,0.234,�k,9.2,��
2014/12/05,16:50,0.603,0.389,0.651,0.583,0.575,0.270,0.236,�k,11.8,��
2014/12/05,17:00,0.602,0.389,0.650,0.583,0.573,0.270,0.233,�k,10.3,��
2014/12/05,17:10,0.603,0.389,0.648,0.582,0.575,0.270,0.235,�k,7.8,��
2014/12/05,17:20,0.602,0.389,0.649,0.584,0.575,0.271,0.235,�k,7.9,��
2014/12/05,17:30,0.604,0.388,0.648,0.583,0.574,0.270,0.234,�k,8.2,��
2014/12/05,17:40,0.603,0.388,0.649,0.583,0.576,0.271,0.233,�k�k��,8.3,��
2014/12/05,17:50,0.603,0.388,0.650,0.583,0.575,0.271,0.235,�k�k��,8.3,��
2014/12/05,18:00,0.602,0.390,0.648,0.584,0.576,0.270,0.235,�k�k��,7.4,��
2014/12/05,18:10,0.602,0.388,0.649,0.584,0.576,0.271,0.235,�k,7.3,��
2014/12/05,18:20,0.601,0.389,0.647,0.584,0.576,0.271,0.234,�k�k��,5.8,��
2014/12/05,18:30,0.601,0.389,0.649,0.584,0.577,0.270,0.236,�k,6.1,��
2014/12/05,18:40,0.604,0.389,0.649,0.584,0.575,0.270,0.235,�k,6.0,��
2014/12/05,18:50,0.601,0.389,0.647,0.584,0.575,0.271,0.235,�k,6.6,��
2014/12/05,19:00,0.603,0.390,0.649,0.582,0.575,0.270,0.236,�k,7.0,��
2014/12/05,19:10,0.602,0.388,0.650,0.583,0.576,0.270,0.235,�k�k��,5.3,��
2014/12/05,19:20,0.603,0.388,0.650,0.583,0.576,0.270,0.235,�k,6.5,��
2014/12/05,19:30,0.604,0.389,0.649,0.584,0.575,0.270,0.234,�k,6.2,��
2014/12/05,19:40,0.603,0.390,0.649,0.584,0.576,0.271,0.234,�k,5.3,��
2014/12/05,19:50,0.603,0.388,0.648,0.585,0.575,0.271,0.235,�k�k��,5.6,��
2014/12/05,20:00,0.602,0.389,0.647,0.583,0.575,0.270,0.236,�k,6.1,��
2014/12/05,20:10,0.603,0.390,0.649,0.585,0.577,0.270,0.236,�k�k��,5.6,��
2014/12/05,20:20,0.602,0.388,0.649,0.584,0.575,0.271,0.235,�k�k��,5.8,��
2014/12/05,20:30,0.604,0.389,0.648,0.584,0.574,0.270,0.236,�k,6.7,��
2014/12/05,20:40,0.602,0.388,0.649,0.583,0.577,0.270,0.235,�k,6.2,��
2014/12/05,20:50,0.603,0.390,0.648,0.585,0.575,0.271,0.236,�k,5.8,��
2014/12/05,21:00,0.603,0.389,0.652,0.584,0.577,0.270,0.234,�k,6.4,��
2014/12/05,21:10,0.603,0.390,0.649,0.583,0.575,0.270,0.235,�k,6.2,��
2014/12/05,21:20,0.603,0.388,0.650,0.585,0.576,0.270,0.236,�k,7.8,��
2014/12/05,21:30,0.602,0.390,0.650,0.584,0.575,0.272,0.235,�k,8.0,��
2014/12/05,21:40,0.603,0.390,0.650,0.585,0.576,0.270,0.235,�k,7.3,��
2014/12/05,21:50,0.604,0.388,0.649,0.584,0.576,0.271,0.235,�k,6.9,��
2014/12/05,22:00,0.605,0.388,0.649,0.584,0.577,0.271,0.236,�k,5.5,��
2014/12/05,22:10,0.603,0.387,0.649,0.583,0.577,0.269,0.235,�k�k��,5.9,��
2014/12/05,22:20,0.603,0.389,0.649,0.584,0.576,0.270,0.236,�k�k��,7.0,��
2014/12/05,22:30,0.602,0.388,0.650,0.583,0.576,0.269,0.236,�k�k��,7.5,��
2014/12/05,22:40,0.604,0.390,0.649,0.584,0.576,0.271,0.236,�k�k��,6.2,��
2014/12/05,22:50,0.604,0.389,0.648,0.586,0.576,0.270,0.236,�k�k��,7.0,��
2014/12/05,23:00,0.603,0.389,0.651,0.584,0.574,0.270,0.235,�k,7.3,��
2014/12/05,23:10,0.604,0.388,0.651,0.582,0.575,0.269,0.235,�k,7.5,��
2014/12/05,23:20,0.602,0.389,0.649,0.584,0.575,0.270,0.236,�k�k��,6.5,��
2014/12/05,23:30,0.604,0.388,0.649,0.585,0.574,0.270,0.235,�k�k��,6.2,��
2014/12/05,23:40,0.602,0.390,0.650,0.585,0.574,0.270,0.235,�k�k��,6.5,��
2014/12/05,23:50,0.601,0.388,0.649,0.585,0.574,0.270,0.235,�k�k��,6.5,��
